JLY1182 SBGR-SBPS

Flight info

Callsign JLY1182
Flight time 1h 26m
Altitude 35000
Route VUMEV UZ14 NITLU UZ16 OSUNO
Aircraft B738/M-SDE2E3FGHIRWXY/LB1

Departure

Time 2026-04-22 00:00
Airport São Paulo/Guarulhos–Governor André Franco Montoro International Airport (SBGR)

Arrival

Time 2026-04-22 01:26
Airport Porto Seguro International Airport (SBPS)
Time Latitude Longitude Altitude Speed Heading
2026-04-21 23:19 -23.42739 -46.47960 2466 ft 0 kts 265°
2026-04-21 23:48 -23.42738 -46.47957 2460 ft 3 kts 265°
2026-04-21 23:48 -23.42736 -46.47929 2464 ft 4 kts 262°
2026-04-21 23:48 -23.42728 -46.47902 2464 ft 4 kts 231°
2026-04-21 23:48 -23.42708 -46.47885 2462 ft 4 kts 197°
2026-04-21 23:49 -23.42699 -46.47882 2463 ft 0 kts 194°
2026-04-21 23:52 -23.42706 -46.47884 2462 ft 3 kts 194°
2026-04-21 23:52 -23.42737 -46.47889 2463 ft 7 kts 183°
2026-04-21 23:52 -23.42796 -46.47882 2465 ft 7 kts 169°
2026-04-21 23:52 -23.42857 -46.47858 2460 ft 11 kts 147°
2026-04-21 23:53 -23.42939 -46.47828 2466 ft 12 kts 167°
2026-04-21 23:53 -23.43019 -46.47825 2466 ft 13 kts 206°
2026-04-21 23:53 -23.43057 -46.47911 2463 ft 12 kts 255°
2026-04-21 23:53 -23.43079 -46.47992 2460 ft 0 kts 253°
2026-04-21 23:54 -23.43084 -46.48010 2464 ft 5 kts 253°
2026-04-21 23:54 -23.43098 -46.48061 2466 ft 9 kts 253°
2026-04-21 23:54 -23.43120 -46.48143 2461 ft 13 kts 253°
2026-04-21 23:54 -23.43150 -46.48253 2460 ft 17 kts 253°
2026-04-21 23:55 -23.43184 -46.48363 2467 ft 13 kts 237°
2026-04-21 23:55 -23.43201 -46.48382 2462 ft 2 kts 216°
2026-04-21 23:55 -23.43203 -46.48383 2462 ft 1 kts 216°
2026-04-21 23:55 -23.43214 -46.48387 2464 ft 4 kts 192°
2026-04-21 23:56 -23.43238 -46.48385 2466 ft 0 kts 168°
2026-04-21 23:56 -23.43240 -46.48385 2465 ft 1 kts 168°
2026-04-21 23:56 -23.43256 -46.48380 2465 ft 3 kts 165°
2026-04-21 23:57 -23.43276 -46.48374 2465 ft 3 kts 164°
2026-04-21 23:57 -23.43293 -46.48369 2460 ft 0 kts 164°
2026-04-21 23:57 -23.43301 -46.48367 2464 ft 5 kts 163°
2026-04-21 23:57 -23.43380 -46.48340 2463 ft 16 kts 158°
2026-04-21 23:58 -23.43407 -46.48254 2462 ft 1 kts 74°
2026-04-21 23:59 -23.43406 -46.48250 2461 ft 5 kts 73°
2026-04-21 23:59 -23.43341 -46.48010 2461 ft 67 kts 73°
2026-04-21 23:59 -23.43144 -46.47281 2459 ft 131 kts 73°
2026-04-21 23:59 -23.42835 -46.46145 2469 ft 182 kts 74°
2026-04-22 00:00 -23.42581 -46.45210 2548 ft 205 kts 75°
2026-04-22 00:00 -23.42191 -46.43754 3486 ft 191 kts 75°
2026-04-22 00:00 -23.41801 -46.42410 4408 ft 185 kts 73°
2026-04-22 00:00 -23.41385 -46.41010 4805 ft 207 kts 72°
2026-04-22 00:01 -23.40920 -46.39449 5012 ft 227 kts 72°
2026-04-22 00:01 -23.40411 -46.37741 5327 ft 243 kts 72°
2026-04-22 00:01 -23.39847 -46.35961 5770 ft 256 kts 66°
2026-04-22 00:01 -23.38922 -46.34203 6152 ft 275 kts 57°
2026-04-22 00:02 -23.37850 -46.32426 6772 ft 284 kts 57°
2026-04-22 00:02 -23.36758 -46.30618 7525 ft 286 kts 58°
2026-04-22 00:02 -23.35678 -46.28794 8294 ft 288 kts 58°
2026-04-22 00:02 -23.34597 -46.26947 9024 ft 291 kts 59°
2026-04-22 00:03 -23.33505 -46.25074 9755 ft 294 kts 59°
2026-04-22 00:03 -23.32418 -46.23203 10425 ft 299 kts 59°
2026-04-22 00:03 -23.31272 -46.21227 10651 ft 321 kts 59°
2026-04-22 00:03 -23.30044 -46.19109 10824 ft 342 kts 59°
2026-04-22 00:04 -23.28749 -46.16877 11194 ft 353 kts 59°
2026-04-22 00:04 -23.27425 -46.14600 11762 ft 358 kts 59°
2026-04-22 00:04 -23.26091 -46.12305 12409 ft 360 kts 59°
2026-04-22 00:04 -23.24750 -46.09998 13058 ft 362 kts 59°
2026-04-22 00:05 -23.23397 -46.07671 13676 ft 365 kts 59°
2026-04-22 00:05 -23.21988 -46.05351 14229 ft 370 kts 52°
2026-04-22 00:05 -23.20017 -46.03542 14705 ft 376 kts 29°
2026-04-22 00:05 -23.17585 -46.02467 15270 ft 379 kts 19°
2026-04-22 00:06 -23.15066 -46.01550 15796 ft 382 kts 19°
2026-04-22 00:06 -23.12534 -46.00641 16299 ft 386 kts 15°
2026-04-22 00:06 -23.09881 -46.00117 16801 ft 389 kts
2026-04-22 00:06 -23.07173 -45.99829 17332 ft 392 kts
2026-04-22 00:07 -23.04444 -45.99564 17863 ft 395 kts
2026-04-22 00:07 -23.01701 -45.99276 18382 ft 398 kts
2026-04-22 00:07 -22.98938 -45.98960 18826 ft 401 kts
2026-04-22 00:07 -22.96194 -45.98628 19257 ft 403 kts
2026-04-22 00:08 -22.93393 -45.98282 19689 ft 406 kts
2026-04-22 00:08 -22.90577 -45.97928 20123 ft 409 kts
2026-04-22 00:08 -22.87839 -45.97072 20474 ft 415 kts 27°
2026-04-22 00:08 -22.85406 -45.95383 20946 ft 417 kts 34°
2026-04-22 00:09 -22.83025 -45.93566 21356 ft 419 kts 34°
2026-04-22 00:09 -22.80637 -45.91724 21719 ft 423 kts 34°
2026-04-22 00:09 -22.78226 -45.89870 22092 ft 426 kts 34°
2026-04-22 00:09 -22.75798 -45.88014 22485 ft 429 kts 34°
2026-04-22 00:10 -22.73350 -45.86156 22865 ft 431 kts 34°
2026-04-22 00:10 -22.70880 -45.84290 23227 ft 434 kts 33°
2026-04-22 00:10 -22.68390 -45.82415 23586 ft 437 kts 33°
2026-04-22 00:10 -22.65884 -45.80532 23896 ft 440 kts 33°
2026-04-22 00:11 -22.63367 -45.78643 24195 ft 442 kts 33°
2026-04-22 00:11 -22.60830 -45.76739 24485 ft 444 kts 33°
2026-04-22 00:11 -22.58278 -45.74826 24756 ft 447 kts 33°
2026-04-22 00:11 -22.55718 -45.72906 25044 ft 449 kts 33°
2026-04-22 00:12 -22.53141 -45.70974 25336 ft 451 kts 33°
2026-04-22 00:12 -22.50552 -45.69034 25613 ft 454 kts 33°
2026-04-22 00:12 -22.47949 -45.67085 25883 ft 456 kts 33°
2026-04-22 00:12 -22.45336 -45.65129 26143 ft 458 kts 33°
2026-04-22 00:13 -22.42709 -45.63164 26402 ft 461 kts 33°
2026-04-22 00:13 -22.40068 -45.61188 26666 ft 463 kts 33°
2026-04-22 00:13 -22.37414 -45.59205 26921 ft 465 kts 33°
2026-04-22 00:13 -22.34747 -45.57212 27171 ft 467 kts 33°
2026-04-22 00:14 -22.32067 -45.55210 27411 ft 469 kts 33°
2026-04-22 00:14 -22.29374 -45.53200 27653 ft 472 kts 33°
2026-04-22 00:14 -22.26734 -45.51230 27900 ft 474 kts 33°
2026-04-22 00:14 -22.24017 -45.49203 28127 ft 476 kts 33°
2026-04-22 00:15 -22.21282 -45.47165 28364 ft 478 kts 33°
2026-04-22 00:15 -22.18544 -45.45124 28614 ft 479 kts 33°
2026-04-22 00:15 -22.15793 -45.43075 28833 ft 482 kts 33°
2026-04-22 00:15 -22.13032 -45.41020 29045 ft 484 kts 33°
2026-04-22 00:16 -22.10255 -45.38953 29249 ft 486 kts 33°
2026-04-22 00:16 -22.07466 -45.36878 29469 ft 488 kts 33°
2026-04-22 00:16 -22.04666 -45.34797 29678 ft 489 kts 33°
2026-04-22 00:16 -22.01898 -45.32642 29899 ft 491 kts 35°
2026-04-22 00:17 -21.99194 -45.30395 30203 ft 491 kts 36°
2026-04-22 00:17 -21.96522 -45.28109 30485 ft 490 kts 37°
2026-04-22 00:17 -21.93864 -45.25817 30742 ft 490 kts 37°
2026-04-22 00:17 -21.91199 -45.23527 30961 ft 490 kts 37°
2026-04-22 00:18 -21.88528 -45.21247 31231 ft 489 kts 37°
2026-04-22 00:18 -21.85858 -45.18982 31525 ft 488 kts 37°
2026-04-22 00:18 -21.83182 -45.16723 31791 ft 488 kts 37°
2026-04-22 00:18 -21.80542 -45.14499 32049 ft 488 kts 37°
2026-04-22 00:19 -21.77867 -45.12249 32302 ft 488 kts 37°
2026-04-22 00:19 -21.75196 -45.10002 32560 ft 487 kts 37°
2026-04-22 00:19 -21.72525 -45.07757 32835 ft 487 kts 37°
2026-04-22 00:19 -21.69857 -45.05514 33108 ft 486 kts 37°
2026-04-22 00:20 -21.67196 -45.03277 33371 ft 486 kts 37°
2026-04-22 00:20 -21.64523 -45.01032 33629 ft 486 kts 37°
2026-04-22 00:20 -21.61857 -44.98794 33891 ft 486 kts 37°
2026-04-22 00:20 -21.59196 -44.96559 34142 ft 485 kts 37°
2026-04-22 00:21 -21.56535 -44.94327 34408 ft 484 kts 37°
2026-04-22 00:21 -21.53882 -44.92103 34620 ft 484 kts 37°
2026-04-22 00:21 -21.51226 -44.89877 34788 ft 485 kts 37°
2026-04-22 00:21 -21.48561 -44.87643 34962 ft 486 kts 37°
2026-04-22 00:22 -21.45923 -44.85435 35113 ft 487 kts 37°
2026-04-22 00:22 -21.40562 -44.80948 35117 ft 488 kts 37°
2026-04-22 00:23 -21.35237 -44.76497 35117 ft 483 kts 37°
2026-04-22 00:23 -21.29947 -44.72087 35118 ft 481 kts 37°
2026-04-22 00:24 -21.24661 -44.67685 35120 ft 479 kts 37°
2026-04-22 00:24 -21.19398 -44.63301 35123 ft 479 kts 37°
2026-04-22 00:25 -21.14171 -44.58945 35122 ft 479 kts 37°
2026-04-22 00:25 -21.08904 -44.54556 35120 ft 480 kts 37°
2026-04-22 00:26 -21.03615 -44.50154 35130 ft 482 kts 37°
2026-04-22 00:26 -20.98318 -44.45750 35130 ft 483 kts 37°
2026-04-22 00:27 -20.92990 -44.41333 35129 ft 485 kts 37°
2026-04-22 00:27 -20.87648 -44.36914 35130 ft 486 kts 37°
2026-04-22 00:28 -20.82300 -44.32492 35134 ft 486 kts 37°
2026-04-22 00:28 -20.76947 -44.28068 35122 ft 486 kts 37°
2026-04-22 00:29 -20.71641 -44.23687 35119 ft 485 kts 37°
2026-04-22 00:29 -20.66298 -44.19279 35117 ft 485 kts 37°
2026-04-22 00:30 -20.60980 -44.14869 35126 ft 483 kts 38°
2026-04-22 00:30 -20.55703 -44.10428 35119 ft 483 kts 38°
2026-04-22 00:31 -20.50777 -44.05597 35129 ft 481 kts 51°
2026-04-22 00:31 -20.47231 -43.99586 35142 ft 479 kts 63°
2026-04-22 00:32 -20.44101 -43.93352 35125 ft 479 kts 63°
2026-04-22 00:32 -20.40924 -43.87097 35125 ft 480 kts 62°
2026-04-22 00:33 -20.37707 -43.80859 35137 ft 480 kts 62°
2026-04-22 00:33 -20.34473 -43.74621 35136 ft 481 kts 62°
2026-04-22 00:34 -20.31235 -43.68383 35134 ft 482 kts 62°
2026-04-22 00:34 -20.27984 -43.62122 35142 ft 483 kts 62°
2026-04-22 00:35 -20.24728 -43.55855 35133 ft 484 kts 62°
2026-04-22 00:35 -20.21465 -43.49583 35132 ft 484 kts 62°
2026-04-22 00:36 -20.18201 -43.43317 35130 ft 484 kts 62°
2026-04-22 00:36 -20.14929 -43.37038 35113 ft 485 kts 62°
2026-04-22 00:37 -20.11654 -43.30763 35120 ft 484 kts 62°
2026-04-22 00:37 -20.08490 -43.24436 35104 ft 484 kts 64°
2026-04-22 00:38 -20.05491 -43.18087 35099 ft 483 kts 64°
2026-04-22 00:38 -20.02455 -43.11711 35099 ft 483 kts 64°
2026-04-22 00:39 -19.99399 -43.05365 35098 ft 482 kts 64°
2026-04-22 00:39 -19.96320 -42.99032 35089 ft 482 kts 61°
2026-04-22 00:40 -19.92294 -42.93347 35108 ft 482 kts 49°
2026-04-22 00:40 -19.87845 -42.88014 35095 ft 482 kts 49°
2026-04-22 00:41 -19.83425 -42.82652 35097 ft 482 kts 50°
2026-04-22 00:41 -19.79036 -42.77253 35091 ft 482 kts 50°
2026-04-22 00:42 -19.74657 -42.71857 35101 ft 483 kts 50°
2026-04-22 00:42 -19.70262 -42.66456 35093 ft 483 kts 49°
2026-04-22 00:43 -19.65894 -42.61086 35080 ft 484 kts 50°
2026-04-22 00:43 -19.61493 -42.55673 35079 ft 485 kts 50°
2026-04-22 00:44 -19.57084 -42.50255 35080 ft 485 kts 50°
2026-04-22 00:44 -19.52665 -42.44832 35076 ft 486 kts 50°
2026-04-22 00:45 -19.48245 -42.39408 35079 ft 486 kts 50°
2026-04-22 00:45 -19.43819 -42.33979 35077 ft 486 kts 50°
2026-04-22 00:46 -19.39397 -42.28560 35075 ft 486 kts 50°
2026-04-22 00:46 -19.34971 -42.23140 35072 ft 486 kts 50°
2026-04-22 00:47 -19.30555 -42.17737 35081 ft 485 kts 50°
2026-04-22 00:47 -19.26130 -42.12330 35069 ft 485 kts 50°
2026-04-22 00:48 -19.21734 -42.06979 35074 ft 485 kts 49°
2026-04-22 00:48 -19.17310 -42.01598 35079 ft 484 kts 49°
2026-04-22 00:49 -19.12893 -41.96230 35071 ft 484 kts 49°
2026-04-22 00:49 -19.08477 -41.90871 35073 ft 483 kts 49°
2026-04-22 00:50 -19.04778 -41.86385 35063 ft 483 kts 49°
2026-04-22 00:50 -19.00365 -41.81039 35075 ft 482 kts 49°
2026-04-22 00:51 -18.95985 -41.75736 35082 ft 482 kts 49°
2026-04-22 00:51 -18.91581 -41.70405 35083 ft 481 kts 50°
2026-04-22 00:52 -18.87176 -41.65079 35072 ft 481 kts 50°
2026-04-22 00:52 -18.82765 -41.59749 35083 ft 481 kts 49°
2026-04-22 00:53 -18.78362 -41.54434 35077 ft 481 kts 49°
2026-04-22 00:53 -18.73965 -41.49129 35087 ft 481 kts 50°
2026-04-22 00:54 -18.69560 -41.43822 35084 ft 480 kts 50°
2026-04-22 00:54 -18.65159 -41.38521 35086 ft 480 kts 50°
2026-04-22 00:55 -18.60760 -41.33225 35099 ft 480 kts 50°
2026-04-22 00:55 -18.54169 -41.25296 35097 ft 479 kts 50°
2026-04-22 00:56 -18.49804 -41.20052 35101 ft 479 kts 50°
2026-04-22 00:56 -18.45408 -41.14774 35100 ft 479 kts 50°
2026-04-22 00:57 -18.41022 -41.09512 35101 ft 478 kts 50°
2026-04-22 00:57 -18.36631 -41.04249 35105 ft 478 kts 50°
2026-04-22 00:58 -18.32243 -40.98992 35106 ft 477 kts 50°
2026-04-22 00:58 -18.27859 -40.93745 35098 ft 476 kts 50°
2026-04-22 00:59 -18.23559 -40.88608 34734 ft 461 kts 50°
2026-04-22 00:59 -18.21454 -40.86098 34407 ft 456 kts 50°
2026-04-22 00:59 -18.19362 -40.83604 34032 ft 453 kts 50°
2026-04-22 01:00 -18.17311 -40.81158 33599 ft 450 kts 50°
2026-04-22 01:00 -18.15239 -40.78688 33201 ft 447 kts 50°
2026-04-22 01:00 -18.13192 -40.76248 32821 ft 444 kts 50°
2026-04-22 01:00 -18.11151 -40.73815 32433 ft 441 kts 50°
2026-04-22 01:01 -18.09129 -40.71407 32056 ft 439 kts 49°
2026-04-22 01:01 -18.07117 -40.69011 31684 ft 436 kts 49°
2026-04-22 01:01 -18.05109 -40.66622 31311 ft 433 kts 49°
2026-04-22 01:01 -18.03123 -40.64259 30937 ft 431 kts 49°
2026-04-22 01:02 -18.01139 -40.61899 30558 ft 429 kts 49°
2026-04-22 01:02 -17.99173 -40.59561 30202 ft 427 kts 49°
2026-04-22 01:02 -17.97209 -40.57227 29765 ft 424 kts 49°
2026-04-22 01:02 -17.95263 -40.54916 29362 ft 421 kts 49°
2026-04-22 01:03 -17.93330 -40.52621 28959 ft 417 kts 49°
2026-04-22 01:03 -17.91413 -40.50344 28582 ft 414 kts 50°
2026-04-22 01:03 -17.89510 -40.48086 28209 ft 410 kts 50°
2026-04-22 01:03 -17.87632 -40.45858 27834 ft 407 kts 50°
2026-04-22 01:04 -17.85761 -40.43639 27468 ft 404 kts 50°
2026-04-22 01:04 -17.83908 -40.41441 27105 ft 400 kts 50°
2026-04-22 01:04 -17.82092 -40.39288 26746 ft 397 kts 50°
2026-04-22 01:04 -17.80266 -40.37124 26371 ft 395 kts 50°
2026-04-22 01:05 -17.78451 -40.34975 26029 ft 392 kts 50°
2026-04-22 01:05 -17.76650 -40.32845 25734 ft 387 kts 50°
2026-04-22 01:05 -17.74877 -40.30754 25506 ft 381 kts 50°
2026-04-22 01:05 -17.73129 -40.28695 25274 ft 375 kts 50°
2026-04-22 01:06 -17.71404 -40.26663 25044 ft 370 kts 50°
2026-04-22 01:06 -17.69704 -40.24660 24821 ft 366 kts 50°
2026-04-22 01:06 -17.68023 -40.22679 24591 ft 361 kts 50°
2026-04-22 01:06 -17.66362 -40.20721 24304 ft 359 kts 50°
2026-04-22 01:07 -17.64705 -40.18770 23988 ft 357 kts 50°
2026-04-22 01:07 -17.63062 -40.16834 23654 ft 356 kts 50°
2026-04-22 01:07 -17.61416 -40.14896 23252 ft 355 kts 50°
2026-04-22 01:07 -17.59781 -40.12971 22893 ft 353 kts 50°
2026-04-22 01:08 -17.58151 -40.11054 22544 ft 351 kts 50°
2026-04-22 01:08 -17.56534 -40.09152 22195 ft 349 kts 50°
2026-04-22 01:08 -17.54925 -40.07259 21857 ft 347 kts 50°
2026-04-22 01:08 -17.53327 -40.05380 21518 ft 345 kts 50°
2026-04-22 01:09 -17.51735 -40.03508 21186 ft 344 kts 50°
2026-04-22 01:09 -17.50130 -40.01622 20869 ft 354 kts 50°
2026-04-22 01:09 -17.48431 -39.99621 20521 ft 380 kts 50°
2026-04-22 01:09 -17.46629 -39.97504 20120 ft 394 kts 50°
2026-04-22 01:10 -17.44800 -39.95364 19719 ft 394 kts 49°
2026-04-22 01:10 -17.42778 -39.93433 19338 ft 392 kts 38°
2026-04-22 01:10 -17.40480 -39.91957 19124 ft 385 kts 29°
2026-04-22 01:10 -17.38106 -39.90679 18777 ft 382 kts 28°
2026-04-22 01:11 -17.35742 -39.89428 18433 ft 380 kts 28°
2026-04-22 01:11 -17.33387 -39.88180 18025 ft 379 kts 28°
2026-04-22 01:11 -17.31076 -39.86946 17629 ft 377 kts 28°
2026-04-22 01:11 -17.28746 -39.85692 17237 ft 376 kts 28°
2026-04-22 01:12 -17.26424 -39.84438 16859 ft 374 kts 28°
2026-04-22 01:12 -17.24111 -39.83186 16482 ft 374 kts 28°
2026-04-22 01:12 -17.21810 -39.81939 16105 ft 373 kts 28°
2026-04-22 01:12 -17.19507 -39.80690 15736 ft 372 kts 28°
2026-04-22 01:13 -17.17207 -39.79444 15374 ft 371 kts 28°
2026-04-22 01:13 -17.14915 -39.78201 14996 ft 371 kts 28°
2026-04-22 01:13 -17.12626 -39.76961 14611 ft 370 kts 27°
2026-04-22 01:13 -17.10343 -39.75724 14237 ft 369 kts 27°
2026-04-22 01:14 -17.08067 -39.74492 13847 ft 367 kts 27°
2026-04-22 01:14 -17.05866 -39.73186 13627 ft 357 kts 35°
2026-04-22 01:14 -17.03933 -39.71628 13552 ft 344 kts 39°
2026-04-22 01:14 -17.02107 -39.70081 13465 ft 332 kts 39°
2026-04-22 01:15 -17.00369 -39.68599 13317 ft 322 kts 39°
2026-04-22 01:15 -16.98639 -39.67130 12975 ft 320 kts 39°
2026-04-22 01:15 -16.96907 -39.65668 12602 ft 319 kts 39°
2026-04-22 01:15 -16.95179 -39.64218 12243 ft 318 kts 39°
2026-04-22 01:16 -16.93454 -39.62776 11923 ft 316 kts 39°
2026-04-22 01:16 -16.91737 -39.61345 11586 ft 315 kts 39°
2026-04-22 01:16 -16.90030 -39.59924 11257 ft 313 kts 39°
2026-04-22 01:16 -16.88327 -39.58510 10925 ft 312 kts 39°
2026-04-22 01:17 -16.86596 -39.57072 10120 ft 327 kts 39°
2026-04-22 01:17 -16.84777 -39.55561 9347 ft 339 kts 39°
2026-04-22 01:17 -16.82936 -39.54034 8948 ft 336 kts 39°
2026-04-22 01:17 -16.81110 -39.52520 8584 ft 333 kts 39°
2026-04-22 01:18 -16.79300 -39.51019 8257 ft 332 kts 39°
2026-04-22 01:18 -16.77493 -39.49521 7933 ft 331 kts 39°
2026-04-22 01:18 -16.75690 -39.48027 7605 ft 331 kts 39°
2026-04-22 01:18 -16.73893 -39.46538 7308 ft 329 kts 39°
2026-04-22 01:19 -16.72111 -39.45063 7095 ft 326 kts 40°
2026-04-22 01:19 -16.70330 -39.43588 6778 ft 327 kts 40°
2026-04-22 01:19 -16.68558 -39.42121 6447 ft 321 kts 40°
2026-04-22 01:19 -16.66844 -39.40703 6093 ft 309 kts 40°
2026-04-22 01:20 -16.65193 -39.39338 5767 ft 297 kts 40°
2026-04-22 01:20 -16.63622 -39.38039 5469 ft 287 kts 40°
2026-04-22 01:20 -16.62082 -39.36766 5180 ft 277 kts 41°
2026-04-22 01:20 -16.60596 -39.35538 4911 ft 268 kts 41°
2026-04-22 01:21 -16.59158 -39.34348 4644 ft 260 kts 41°
2026-04-22 01:21 -16.57763 -39.33194 4364 ft 252 kts 41°
2026-04-22 01:21 -16.56408 -39.32074 4100 ft 246 kts 41°
2026-04-22 01:21 -16.55072 -39.30967 4049 ft 247 kts 41°
2026-04-22 01:22 -16.53733 -39.29859 3935 ft 245 kts 41°
2026-04-22 01:22 -16.52406 -39.28763 3698 ft 237 kts 41°
2026-04-22 01:22 -16.51135 -39.27716 3542 ft 229 kts 42°
2026-04-22 01:22 -16.49911 -39.26707 3457 ft 223 kts 41°
2026-04-22 01:23 -16.48741 -39.25641 3280 ft 226 kts 57°
2026-04-22 01:23 -16.48140 -39.24132 3057 ft 228 kts 79°
2026-04-22 01:23 -16.47731 -39.22526 2763 ft 230 kts 77°
2026-04-22 01:23 -16.47310 -39.20948 2504 ft 220 kts 77°
2026-04-22 01:24 -16.46911 -39.19466 2217 ft 205 kts 77°
2026-04-22 01:24 -16.46543 -39.18102 1960 ft 187 kts 78°
2026-04-22 01:24 -16.46215 -39.16888 1862 ft 163 kts 77°
2026-04-22 01:24 -16.45914 -39.15768 1638 ft 158 kts 78°
2026-04-22 01:25 -16.45621 -39.14679 1443 ft 154 kts 78°
2026-04-22 01:25 -16.45339 -39.13628 1216 ft 151 kts 78°
2026-04-22 01:25 -16.45059 -39.12588 944 ft 145 kts 77°
2026-04-22 01:25 -16.44785 -39.11577 710 ft 144 kts 77°
2026-04-22 01:26 -16.44510 -39.10599 522 ft 139 kts 77°
2026-04-22 01:26 -16.44266 -39.09632 323 ft 136 kts 77°
2026-04-22 01:26 -16.44013 -39.08695 168 ft 132 kts 77°
2026-04-22 01:26 -16.43834 -39.08020 158 ft 37 kts 77°
2026-04-22 01:27 -16.43811 -39.07956 158 ft 5 kts 224°
2026-04-22 01:27 -16.43835 -39.08028 158 ft 21 kts 257°
2026-04-22 01:27 -16.43898 -39.08137 159 ft 17 kts 186°
2026-04-22 01:27 -16.43995 -39.08118 159 ft 17 kts 183°
2026-04-22 01:28 -16.44064 -39.08131 159 ft 0 kts 165°
2026-04-22 01:28 -16.44070 -39.08129 159 ft 3 kts 167°
2026-04-22 01:28 -16.44071 -39.08129 159 ft 0 kts 167°